Regional Weather Roundup
Issued by NWS Green Bay, WI

Home | Current Version | Previous Version | Text Only | Print | Product List | Glossary On
Versions: 1 2 3 4 5 6 7 8 9 10 11 12 13 14 15 16 17 18 19 20 21 22 23 24 25 26 27 28 29 30 31 32 33 34 35 36 37 38 39 40 41 42 43 44 45 46 47 48 49 50
000
ASUS43 KGRB 301000
RWRGRB

NORTH-CENTRAL AND NORTHEAST WISCONSIN REGIONAL WEATHER ROUNDUP
NATIONAL WEATHER SERVICE GREEN BAY WI
500 AM CDT MON MAY 30 2016

WIZ005-009-010>012-018-019-301100-
NORTH CENTRAL WISCONSIN

CITY           SKY/WX    TMP DP  RH WIND       PRES   REMARKS
IRONWOOD       CLEAR     52  50  93 W7        29.93R
MANITOWISH WTR NOT AVBL
ARBOR VITAE    NOT AVBL
EAGLE RIVER    NOT AVBL
LAND O LAKES   NOT AVBL
RHINELANDER    FOG       49  48  97 W5        29.98S VSB 3/4
PHILLIPS       NOT AVBL
ANTIGO         NOT AVBL
TOMAHAWK       NOT AVBL
MERRILL        NOT AVBL
$$

WIZ013-073-301100-
NORTHEAST WISCONSIN

CITY           SKY/WX    TMP DP  RH WIND       PRES   REMARKS
IRON MOUNTAIN  CLEAR     53  50  89 CALM      29.93R
MARINETTE      CLEAR     57  55  94 CALM      29.95S
$$

WIZ017-030-035>037-045-301100-
CENTRAL WISCONSIN

CITY           SKY/WX    TMP DP  RH WIND       PRES   REMARKS
MEDFORD        NOT AVBL
WAUSAU         CLOUDY    57  55  93 CALM      29.97R
MOSINEE        NOT AVBL
MARSHFIELD     CLEAR     58  55  90 W7        29.99R
WISC RAPIDS    CLEAR     56  54  93 CALM      30.00R
STEVENS POINT  NOT AVBL
WAUPACA        NOT AVBL
SHAWANO        NOT AVBL
CLINTONVILLE   NOT AVBL
WAUTOMA        PTCLDY   N/A N/A N/A CALM      29.99R
$$

WIZ038-039-048-051-301100-
FOX VALLEY

CITY           SKY/WX    TMP DP  RH WIND       PRES   REMARKS
NWS GREEN BAY  CLEAR     58  56  93 W5        29.96S
APPLETON       NOT AVBL
OSHKOSH        CLEAR     61  57  87 W6        29.98R
FOND DU LAC    CLEAR     57  56  96 S3        29.99R
$$

WIZ022-050-052-301100-
EAST CENTRAL WISCONSIN

CITY           SKY/WX    TMP DP  RH WIND       PRES   REMARKS
EPHRAIM        NOT AVBL
STURGEON BAY   NOT AVBL
MANITOWOC      NOT AVBL
SHEBOYGAN      CLEAR     56  54  93 SW3       29.97S
$$

LMZ563-521-522-541>543-301100-
LAKESHORE

STATION/POSITION TIME  TEMP    WIND        PRES    VSBY  WAVE
                       AIR SEA DIR/SP/G                  HT/PER
                 (UTC) (F)     (DEG/KT/KT) (MB)    (MI)  (FT/S)
SHEBOYGAN LKSHOR 0900   63     260/  9/ 10 1014.7S
KEWAUNEE LKSHORE 0900   60     300/  4/  4 1013.7R
NORTHPORT PIER   0900   60     250/  4/  7 1013.5R
N MID LAKE BUOY  0850   53 47  230/  8/ 10 1013.0R         1/ 4
CHAMBERS ISLAND  0900   60     220/  5/  9 1013.9R
MENOMINEE LKSHOR 0900   62     250/  6/  8 1012.8R
$$



USA.gov is the U.S. government's official web portal to all federal, state and local government web resources and services.